Regional Weather Roundup
Issued by NWS

Home | Current Version | Previous Version | Graphics & Text | Print | Product List | Glossary Off
Versions: 1 2 3 4 5 6 7 8 9 10 11 12 13 14 15 16 17 18 19 20 21 22 23 24 25 26 27 28 29 30 31 32 33 34 35 36 37 38 39 40 41 42 43 44 45 46 47 48 49 50

000
ASUS43 KTOP 210359
RWRKS

WEATHER ROUNDUP FOR KANSAS
NATIONAL WEATHER SERVICE GOODLAND KS
1000 PM CST SAT JAN 20 2018

NOTE:  "FAIR" INDICATES FEW OR NO CLOUDS BELOW 12,000 FEET WITH NO
SIGNIFICANT WEATHER AND/OR OBSTRUCTIONS TO VISIBILITY.

KSZ001>006-013>018-027>032-041>047-210500-
NORTHWEST KANSAS

CITY           SKY/WX    TMP DP  RH WIND       PRES   REMARKS
GOODLAND       MOCLDY    29  26  89 N9        29.76S
HAYS           PTCLDY    34  30  85 N6        29.75S
HILL CITY      CLOUDY    31  26  82 CALM      29.77F
RUSSELL        CLOUDY    36  33  89 N9        29.73S
$$

KSZ061>065-074>080-084>089-210500-
SOUTHWEST KANSAS

CITY           SKY/WX    TMP DP  RH WIND       PRES   REMARKS
DODGE CITY     CLOUDY    35  20  54 NE8       29.69F
GARDEN CITY    CLOUDY    36  21  54 NE17      29.69F WCI  26
GREAT BEND     CLOUDY    29  26  89 CALM      29.73F
LIBERAL        CLOUDY    47  19  33 S12       29.66S
$$

KSZ066>073-081>083-090>101-210500-
SOUTHEAST KANSAS

CITY           SKY/WX    TMP DP  RH WIND       PRES   REMARKS
CHANUTE        CLEAR     51  47  86 S12       29.83S
COFFEYVILLE    CLEAR     52  48  86 S12       29.83S
HUTCHINSON     CLOUDY    38  36  92 E6        29.74F
MEDICINE LODGE   N/A     55  37  50 E8        29.71F
NEWTON         CLOUDY    41  38  89 E9        29.77S
PARSONS        CLEAR     53  49  86 S9        29.83S
WICHITA INTL   CLOUDY    45  41  86 SE3       29.75S
WICHITA JABRA  CLOUDY    43  41  93 E3        29.76R
WICHITA MCCONL CLOUDY    47  38  71 S6        29.75S
WINFIELD       CLEAR     52  44  74 SE8       29.77S
$$

KSZ007>012-019>026-033>040-048>060-102>105-210500-
NORTHEAST KANSAS

CITY           SKY/WX    TMP DP  RH WIND       PRES   REMARKS
CONCORDIA      FOG       36  36 100 E6        29.77F VSB 3/4
EMPORIA        CLOUDY    40  39  97 SE8       29.79S
LAWRENCE       CLEAR     39  39 100 E8        29.83S FOG
MANHATTAN      CLEAR     42  40  92 N6        29.80S FOG
OLATHE IND     CLEAR     42  41  96 SE3       29.84S
OLATHE EXE     CLEAR     42  41  96 E5        29.84S
SALINA         CLOUDY    38  36  92 SE3       29.76F
TOPEKA BILLARD FOG       40  40 100 SE3       29.82S VSB 1/2
TOPEKA FORBES  CLEAR     42  41  96 SE5       29.81S FOG
$$




USA.gov is the U.S. government's official web portal to all federal, state and local government web resources and services.